Miscellaneous Local Product
Issued by NWS North Platte, NE

Home | Current Version | Previous Version | Graphics & Text | Print | Product List | Glossary On
Versions: 1 2 3 4 5 6 7 8 9 10 11 12 13 14 15 16 17 18 19 20 21 22 23 24 25 26 27 28 29 30 31 32 33 34 35 36 37 38 39 40 41 42 43 44 45 46 47 48 49 50
608
AXUS43 KLBF 260210
MISLBF


WESTERN AND NORTH CENTRAL NEBRASKA HOURLY WEATHER ROUNDUP
NATIONAL WEATHER SERVICE NORTH PLATTE NE
900 PM CDT TUE APR 25 2017

NOTE: "FAIR" INDICATES FEW OR NO CLOUDS BELOW 12,000 FEET WITH NO
SIGNIFICANT WEATHER AND/OR OBSTRUCTIONS TO VISIBILITY.

NOTE: STATIONS NOT REPORTING VARIABLES SUCH AS SKY/WEATHER OR
PRESSURE ARE PROVIDED BY RAWS AND APRS NETWORKS AND ARE NOT UNDER
NATIONAL WEATHER SERVICE QUALITY CONTROL.

...OBSERVATIONS IN AND NEAR THE EASTERN PANHANDLE OF NEBRASKA...

CITY           SKY/WX    TMP DP  RH WIND       PRES   REMARKS
PINE RIDGE     CLOUDY    30  26  85 N8        29.85R WCI  22
CHADRON        LGT SNOW  30  26  85 N13       29.86R FOG     WCI  20
ALLIANCE       CLOUDY    31  26  82 N18       29.79R WCI  19
SIDNEY         CLOUDY    35  31  85 NE17      29.77R WCI  25
CRESCENT LAKE    N/A     50  28  43 NE13G21     N/A
$$

...OBSERVATIONS IN NORTHERN NEBRASKA AND FAR SOUTHERN SOUTH DAKOTA...

CITY           SKY/WX    TMP DP  RH WIND       PRES   REMARKS
WINNER         CLOUDY    35  31  85 NW16      29.80R WCI  25
VALENTINE      CLOUDY    33  27  78 N16G26    29.80R WCI  23
THEDFORD       CLOUDY    35  30  83 N16G22    29.78R WCI  25
AINSWORTH      CLOUDY    32  31  96 N20G25    29.77R WCI  21
O`NEILL        CLOUDY    37  32  85 N23G29    29.73R WCI  25
ORD            CLOUDY    38  33  82 N23       29.70R WCI  27
BROKEN BOW     CLOUDY    36  32  85 N25G31    29.72R WCI  24
VALENTINE NWR    N/A     50  28  42 N16G23      N/A
HALSEY           N/A     34  31  88 N9G17       N/A  WCI  27
BUTTE            N/A     34  32  92 N14G24      N/A  WCI  25
CHAMBERS         N/A     36  33  88 N6G13       N/A  WCI  31
EWING            N/A     36  35  95 N10G18      N/A  WCI  28
$$

...OBSERVATIONS IN SOUTHWEST NEBRASKA AND FAR NORTHEAST COLORADO...

CITY           SKY/WX    TMP DP  RH WIND       PRES   REMARKS
HOLYOKE        CLOUDY    41  36  81 N18       29.76R
IMPERIAL       CLOUDY    40  34  79 NE18      29.74R WCI  31
OGALLALA       CLOUDY    38  34  85 N15       29.77R WCI  30
NORTH PLATTE   CLOUDY    38  32  79 N17G26    29.75R WCI  28
MCCOOK         CLOUDY    42  36  79 NE14      29.71R
LEXINGTON      CLOUDY    38  34  84 N16G24    29.72R WCI  29
STAPLETON        N/A     34  31  88 CALM        N/A
GOTHENBURG       N/A     38  32  80 N13         N/A  WCI  30
CALLAWAY         N/A     35  32  90 N21         N/A  WCI  24
$$

...OBSERVATIONS IN CENTRAL LINCOLN COUNTY AREA...

CITY           SKY/WX    TMP DP  RH WIND       PRES   REMARKS
N.P. AIRPORT   CLOUDY    38  32  79 N17G26    29.75R WCI  28
N.P. DOWNTOWN    N/A     37  32  83 N9          N/A  WCI  30
N.P. SOUTHEAST   N/A     37  32  81 N8G20       N/A  WCI  31
N.P. HILLCREST   N/A     37  33  84 N18         N/A  WCI  27
$$

...SOME OBSERVATIONS FROM AROUND THE REGION...

CITY           SKY/WX    TMP DP  RH WIND       PRES   REMARKS
DENVER         CLOUDY    41  36  82 N17       29.73R
LIMON          CLOUDY    42  39  89 NE23G31   29.69R
ASPEN          CLOUDY    34  29  82 N5        29.79R WCI  30
LARAMIE        PTCLDY    29  21  72 MISG      29.77R
CASPER         CLOUDY    29  25  85 N5        29.86R WCI  24
CHEYENNE       CLOUDY    29  22  75 N17G28    29.77R WCI  17
SCOTTSBLUFF    CLOUDY    33  27  78 NE21      29.80R WCI  21
GRAND ISLAND   CLOUDY    39  37  92 N22       29.69R WCI  29
OMAHA          LGT RAIN  44  40  85 N17       29.59R
SIOUX FALLS    LGT RAIN  37  37 100 N20G25    29.66S WCI  27
PIERRE         LGT SNOW  32  28  85 N14       29.82R FOG     WCI  22
RAPID CITY     CLOUDY    28  24  85 N16       29.87R WCI  16
BISMARCK       CLOUDY    37  27  67 N12       29.90R WCI  29
KANSAS CITY    CLOUDY    62  51  67 NW10      29.46R
HILL CITY      CLOUDY    46  40  79 N20G25    29.67R
WICHITA        PTCLDY    54  48  80 N21G30    29.51R
DODGE CITY     LGT RAIN  51  47  86 N12       29.57R
OKLAHOMA CITY  MOCLDY    70  60  70 NW16      29.42R
DALLAS         PTCLDY    80  69  69 S20       29.41S
AMARILLO       CLEAR     54  47  77 NE14      29.51R
$$




USA.gov is the U.S. government's official web portal to all federal, state and local government web resources and services.